Location: Gu�tanj
(46.5431°N, 14.9692°E)
Time: 18:40:26
(UTC+00:00)

Cosmos 2154 Rocket - Pass Details

Date: 03 March 2021
Orbit: 966 x 996 km, 82.9° (Epoch: 15 April)

Event Time Altitude Azimuth Distance (km) Brightness Sun altitude
Rises 17:33:39 0° 177° (S) 3,657 7.0 -8.5°
Reaches altitude 10° 17:36:09 10° 174° (S) 2,710 6.3 -8.9°
Maximum altitude 17:42:17 66° 94° (E) 1,054 4.0 -9.9°
Drops below altitude 10° 17:48:26 10° 14° (NNE) 2,718 6.2 -11.0°
Sets 17:50:57 0° 12° (NNE) 3,668 6.9 -11.4°
